sat.trackr.live / text

‹ back to catalog

STARLINK-35268

NORAD 65810 · 2025-218V

PAYLOAD ACTIVE UNKNOWN

§ Identity

Operator
Country
US
Launch date
2025-09-26
Launch site
AFWTR
Launch vehicle
Mass (kg)
RCS (m²)

Purposes: comms

External: N2YO · Heavens-Above · Gunter

§ Orbital elements

Epoch: 2026-05-25T02:59:17.016864Z

Period
95.64 min
Inclination
97.4498°
Eccentricity
0.0003029
Mean motion
15.05649856 rev/d
Perigee alt
547.4 km
Apogee alt
551.6 km
Semi-major
6,927.6 km
B*
2.3161e-4
RAAN
7.9570°
Arg perigee
71.1454°
Mean anomaly
289.0102°
Rev number
3,647

§ Raw data

STARLINK-352681 65810U 25218V   26145.12450251  .00003285  00000+0  23161-3 0  99992 65810  97.4498   7.9570 0003029  71.1454 289.0102 15.05649856 36478

JSON: /api/v1/satellites/65810 · /tle

For live sub-satellite position, see the globe view (requires WebGL).

§ Visibility from observer

Set your observer location to see the next 7 days of passes ≥ 10°. The values pass through the URL so the page stays shareable.

No JS? Fill the form by hand. The geolocation button needs JavaScript.